Time,TemperatureF,DewpointF,PressureIn,WindDirection,WindDirectionDegrees,WindSpeedMPH,WindSpeedGustMPH,Humidity,HourlyPrecipIn,Conditions,Clouds,dailyrainin,SolarRadiationWatts/m^2,SoftwareType,DateUTC
2013-01-11 00:13:00,55.0,46.0,30.71,ESE,120,5.0,14.0,71,0.00,,,0.00,0.000000,,2013-01-11 05:13:00,
2013-01-11 00:23:00,55.0,46.0,30.71,ESE,120,5.0,14.0,71,0.00,,,0.00,0.000000,,2013-01-11 05:23:00,
2013-01-11 00:33:00,55.0,46.0,30.71,ESE,120,5.0,14.0,71,0.00,,,0.00,0.000000,,2013-01-11 05:33:00,
2013-01-11 00:43:00,55.0,46.0,30.71,ESE,120,5.0,14.0,71,0.00,,,0.00,0.000000,,2013-01-11 05:43:00,
2013-01-11 01:12:00,54.0,47.0,30.69,ESE,109,5.0,16.0,76,0.00,,,0.00,0.000000,,2013-01-11 06:12:00,
2013-01-11 01:22:00,54.0,47.0,30.69,ESE,109,5.0,16.0,76,0.00,,,0.00,0.000000,,2013-01-11 06:22:00,
2013-01-11 01:32:00,54.0,47.0,30.69,ESE,109,5.0,16.0,76,0.00,,,0.00,0.000000,,2013-01-11 06:32:00,
2013-01-11 01:42:00,54.0,47.0,30.69,ESE,109,5.0,16.0,76,0.00,,,0.00,0.000000,,2013-01-11 06:42:00,
2013-01-11 02:12:00,52.0,45.0,30.67,NW,323,6.0,16.0,76,0.00,,,0.00,0.000000,,2013-01-11 07:12:00,
2013-01-11 02:22:00,52.0,45.0,30.67,NW,323,6.0,16.0,76,0.00,,,0.00,0.000000,,2013-01-11 07:22:00,
2013-01-11 02:32:00,52.0,45.0,30.67,NW,323,6.0,16.0,76,0.00,,,0.00,0.000000,,2013-01-11 07:32:00,
2013-01-11 02:42:00,52.0,45.0,30.67,NW,323,6.0,16.0,76,0.00,,,0.00,0.000000,,2013-01-11 07:42:00,
2013-01-11 03:12:00,49.0,47.0,30.68,ESE,114,4.0,17.0,92,0.01,,,0.01,0.000000,,2013-01-11 08:12:00,
2013-01-11 03:22:00,49.0,47.0,30.68,ESE,114,4.0,17.0,92,0.01,,,0.01,0.000000,,2013-01-11 08:22:00,
2013-01-11 03:32:00,49.0,47.0,30.68,ESE,114,4.0,17.0,92,0.01,,,0.01,0.000000,,2013-01-11 08:32:00,
2013-01-11 03:42:00,49.0,47.0,30.68,ESE,114,4.0,17.0,92,0.01,,,0.01,0.000000,,2013-01-11 08:42:00,
2013-01-11 04:12:00,46.0,44.0,30.66,East,86,3.0,9.0,94,0.03,,,0.04,0.000000,,2013-01-11 09:12:00,
2013-01-11 04:23:00,46.0,44.0,30.66,East,86,3.0,9.0,94,0.03,,,0.04,0.000000,,2013-01-11 09:23:00,
2013-01-11 04:32:00,46.0,44.0,30.66,East,86,3.0,9.0,94,0.03,,,0.04,0.000000,,2013-01-11 09:32:00,
2013-01-11 04:42:00,46.0,44.0,30.66,East,86,3.0,9.0,94,0.03,,,0.04,0.000000,,2013-01-11 09:42:00,
2013-01-11 05:12:00,46.0,45.0,30.63,East,97,3.0,9.0,96,0.03,,,0.07,0.000000,,2013-01-11 10:12:00,
2013-01-11 05:22:00,46.0,45.0,30.63,East,97,3.0,9.0,96,0.03,,,0.07,0.000000,,2013-01-11 10:22:00,
2013-01-11 05:32:00,46.0,45.0,30.63,East,97,3.0,9.0,96,0.03,,,0.07,0.000000,,2013-01-11 10:32:00,
2013-01-11 05:42:00,46.0,45.0,30.63,East,97,3.0,9.0,96,0.03,,,0.07,0.000000,,2013-01-11 10:42:00,
2013-01-11 06:12:00,47.0,46.0,30.63,East,99,3.0,11.0,97,0.02,,,0.09,0.000000,,2013-01-11 11:12:00,
2013-01-11 06:22:00,47.0,46.0,30.63,East,99,3.0,11.0,97,0.02,,,0.09,0.000000,,2013-01-11 11:22:00,
2013-01-11 06:33:00,47.0,46.0,30.63,East,99,3.0,11.0,97,0.02,,,0.09,0.000000,,2013-01-11 11:33:00,
2013-01-11 06:43:00,47.0,46.0,30.63,East,99,3.0,11.0,97,0.02,,,0.09,0.000000,,2013-01-11 11:43:00,
2013-01-11 07:12:00,47.0,46.0,30.62,East,90,3.0,10.0,97,0.03,,,0.12,0.000000,,2013-01-11 12:12:00,
2013-01-11 07:23:00,47.0,46.0,30.62,East,90,3.0,10.0,97,0.03,,,0.12,0.000000,,2013-01-11 12:23:00,
2013-01-11 07:33:00,47.0,46.0,30.62,East,90,3.0,10.0,97,0.03,,,0.12,0.000000,,2013-01-11 12:33:00,
2013-01-11 07:43:00,47.0,46.0,30.62,East,90,3.0,10.0,97,0.03,,,0.12,0.000000,,2013-01-11 12:43:00,
2013-01-11 08:13:00,47.0,46.0,30.63,ENE,78,3.0,8.0,98,0.00,,,-99.99,0.000000,,2013-01-11 13:13:00,
2013-01-11 08:22:00,47.0,46.0,30.63,ENE,78,3.0,8.0,98,0.00,,,-99.99,0.000000,,2013-01-11 13:22:00,
2013-01-11 08:33:00,47.0,46.0,30.63,ENE,78,3.0,8.0,98,0.00,,,-99.99,0.000000,,2013-01-11 13:33:00,
2013-01-11 08:43:00,47.0,46.0,30.63,ENE,78,3.0,8.0,98,0.00,,,-99.99,0.000000,,2013-01-11 13:43:00,
2013-01-11 09:12:00,48.0,47.0,30.64,East,79,4.0,8.0,97,0.00,,,0.12,28.000000,,2013-01-11 14:12:00,
2013-01-11 09:23:00,48.0,47.0,30.64,East,79,4.0,8.0,97,0.00,,,0.12,28.000000,,2013-01-11 14:23:00,
2013-01-11 09:33:00,48.0,47.0,30.64,East,79,4.0,8.0,97,0.00,,,0.12,28.000000,,2013-01-11 14:33:00,
2013-01-11 09:43:00,48.0,47.0,30.64,East,79,4.0,8.0,97,0.00,,,0.12,28.000000,,2013-01-11 14:43:00,
2013-01-11 10:13:00,49.0,48.0,30.63,WSW,244,4.0,10.0,96,0.00,,,0.12,55.000000,,2013-01-11 15:13:00,
2013-01-11 10:23:00,49.0,48.0,30.63,WSW,244,4.0,10.0,96,0.00,,,0.12,55.000000,,2013-01-11 15:23:00,
2013-01-11 10:33:00,49.0,48.0,30.63,WSW,244,4.0,10.0,96,0.00,,,0.12,55.000000,,2013-01-11 15:33:00,
2013-01-11 10:43:00,49.0,48.0,30.63,WSW,244,4.0,10.0,96,0.00,,,0.12,55.000000,,2013-01-11 15:43:00,
2013-01-11 11:13:00,51.0,50.0,30.62,East,95,3.0,9.0,95,0.00,,,0.12,110.000000,,2013-01-11 16:13:00,
2013-01-11 11:23:00,51.0,50.0,30.62,East,95,3.0,9.0,95,0.00,,,0.12,110.000000,,2013-01-11 16:23:00,
2013-01-11 11:33:00,51.0,50.0,30.62,East,95,3.0,9.0,95,0.00,,,0.12,110.000000,,2013-01-11 16:33:00,
2013-01-11 11:43:00,51.0,50.0,30.62,East,95,3.0,9.0,95,0.00,,,0.12,110.000000,,2013-01-11 16:43:00,
2013-01-11 12:12:00,52.0,50.0,30.58,SE,146,1.0,6.0,94,0.00,,,0.12,123.000000,,2013-01-11 17:12:00,
2013-01-11 12:22:00,52.0,50.0,30.58,SE,146,1.0,6.0,94,0.00,,,0.12,123.000000,,2013-01-11 17:22:00,
2013-01-11 12:33:00,52.0,50.0,30.58,SE,146,1.0,6.0,94,0.00,,,0.12,123.000000,,2013-01-11 17:33:00,
2013-01-11 12:43:00,52.0,50.0,30.58,SE,146,1.0,6.0,94,0.00,,,0.12,123.000000,,2013-01-11 17:43:00,
2013-01-11 13:13:00,55.0,53.0,30.55,ENE,73,2.0,5.0,92,0.00,,,0.12,176.000000,,2013-01-11 18:13:00,
2013-01-11 13:23:00,55.0,53.0,30.55,ENE,73,2.0,5.0,92,0.00,,,0.12,176.000000,,2013-01-11 18:23:00,
2013-01-11 13:33:00,55.0,53.0,30.55,ENE,73,2.0,5.0,92,0.00,,,0.12,176.000000,,2013-01-11 18:33:00,
2013-01-11 13:43:00,55.0,53.0,30.55,ENE,73,2.0,5.0,92,0.00,,,0.12,176.000000,,2013-01-11 18:43:00,
2013-01-11 14:13:00,56.0,53.0,30.52,West,262,1.0,5.0,89,0.00,,,0.12,179.000000,,2013-01-11 19:13:00,
2013-01-11 14:23:00,56.0,53.0,30.52,West,262,1.0,5.0,89,0.00,,,0.12,179.000000,,2013-01-11 19:23:00,
2013-01-11 14:33:00,56.0,53.0,30.52,West,262,1.0,5.0,89,0.00,,,0.12,179.000000,,2013-01-11 19:33:00,
2013-01-11 14:43:00,56.0,53.0,30.52,West,262,1.0,5.0,89,0.00,,,0.12,179.000000,,2013-01-11 19:43:00,
2013-01-11 15:13:00,59.0,55.0,30.51,SSW,193,2.0,6.0,87,0.00,,,0.12,230.000000,,2013-01-11 20:13:00,
2013-01-11 15:23:00,59.0,55.0,30.51,SSW,193,2.0,6.0,87,0.00,,,0.12,230.000000,,2013-01-11 20:23:00,
2013-01-11 15:33:00,59.0,55.0,30.51,SSW,193,2.0,6.0,87,0.00,,,0.12,230.000000,,2013-01-11 20:33:00,
2013-01-11 15:43:00,59.0,55.0,30.51,SSW,193,2.0,6.0,87,0.00,,,0.12,230.000000,,2013-01-11 20:43:00,
2013-01-11 16:13:00,61.0,57.0,30.49,South,184,3.0,9.0,88,0.00,,,0.12,128.000000,,2013-01-11 21:13:00,
2013-01-11 16:23:00,61.0,57.0,30.49,South,184,3.0,9.0,88,0.00,,,0.12,128.000000,,2013-01-11 21:23:00,
2013-01-11 16:33:00,61.0,57.0,30.49,South,184,3.0,9.0,88,0.00,,,0.12,128.000000,,2013-01-11 21:33:00,
2013-01-11 16:43:00,61.0,57.0,30.49,South,184,3.0,9.0,88,0.00,,,0.12,128.000000,,2013-01-11 21:43:00,
2013-01-11 17:13:00,60.0,57.0,30.49,NW,319,1.0,5.0,90,0.00,,,0.12,46.000000,,2013-01-11 22:13:00,
2013-01-11 17:23:00,60.0,57.0,30.49,NW,319,1.0,5.0,90,0.00,,,0.12,46.000000,,2013-01-11 22:23:00,
2013-01-11 17:33:00,60.0,57.0,30.49,NW,319,1.0,5.0,90,0.00,,,0.12,46.000000,,2013-01-11 22:33:00,
2013-01-11 17:42:00,60.0,57.0,30.49,NW,319,1.0,5.0,90,0.00,,,0.12,46.000000,,2013-01-11 22:42:00,
2013-01-11 18:13:00,56.0,55.0,30.50,NW,316,4.0,7.0,95,0.00,,,0.12,14.000000,,2013-01-11 23:13:00,
2013-01-11 18:23:00,56.0,55.0,30.50,NW,316,4.0,7.0,95,0.00,,,0.12,14.000000,,2013-01-11 23:23:00,
2013-01-11 18:33:00,56.0,55.0,30.50,NW,316,4.0,7.0,95,0.00,,,0.12,14.000000,,2013-01-11 23:33:00,
2013-01-11 18:43:00,56.0,55.0,30.50,NW,316,4.0,7.0,95,0.00,,,0.12,14.000000,,2013-01-11 23:43:00,
2013-01-11 19:12:00,56.0,55.0,30.49,SSE,150,1.0,9.0,97,0.00,,,0.12,0.000000,,2013-01-12 00:12:00,
2013-01-11 19:23:00,56.0,55.0,30.49,SSE,150,1.0,9.0,97,0.00,,,0.12,0.000000,,2013-01-12 00:23:00,
2013-01-11 19:33:00,56.0,55.0,30.49,SSE,150,1.0,9.0,97,0.00,,,0.12,0.000000,,2013-01-12 00:33:00,
2013-01-11 19:43:00,56.0,55.0,30.49,SSE,150,1.0,9.0,97,0.00,,,0.12,0.000000,,2013-01-12 00:43:00,
2013-01-11 20:12:00,55.0,54.0,30.48,ENE,73,1.0,3.0,98,0.00,,,0.12,0.000000,,2013-01-12 01:12:00,
2013-01-11 20:22:00,55.0,54.0,30.48,ENE,73,1.0,3.0,98,0.00,,,0.12,0.000000,,2013-01-12 01:22:00,
2013-01-11 20:33:00,55.0,54.0,30.48,ENE,73,1.0,3.0,98,0.00,,,0.12,0.000000,,2013-01-12 01:33:00,
2013-01-11 20:43:00,55.0,54.0,30.48,ENE,73,1.0,3.0,98,0.00,,,0.12,0.000000,,2013-01-12 01:43:00,
2013-01-11 21:12:00,53.0,52.0,30.49,NNE,20,2.0,6.0,98,0.00,,,0.12,0.000000,,2013-01-12 02:12:00,
2013-01-11 21:22:00,53.0,52.0,30.49,NNE,20,2.0,6.0,98,0.00,,,0.12,0.000000,,2013-01-12 02:22:00,
2013-01-11 21:33:00,53.0,52.0,30.49,NNE,20,2.0,6.0,98,0.00,,,0.12,0.000000,,2013-01-12 02:33:00,
2013-01-11 21:43:00,53.0,52.0,30.49,NNE,20,2.0,6.0,98,0.00,,,0.12,0.000000,,2013-01-12 02:43:00,
2013-01-11 22:12:00,55.0,55.0,30.48,West,264,2.0,4.0,99,0.00,,,0.12,0.000000,,2013-01-12 03:12:00,
2013-01-11 22:22:00,55.0,55.0,30.48,West,264,2.0,4.0,99,0.00,,,0.12,0.000000,,2013-01-12 03:22:00,
2013-01-11 22:33:00,55.0,55.0,30.48,West,264,2.0,4.0,99,0.00,,,0.12,0.000000,,2013-01-12 03:33:00,
2013-01-11 22:43:00,55.0,55.0,30.48,West,264,2.0,4.0,99,0.00,,,0.12,0.000000,,2013-01-12 03:43:00,
2013-01-11 23:12:00,55.0,55.0,30.48,NNE,29,1.0,8.0,99,0.00,,,0.12,0.000000,,2013-01-12 04:12:00,
2013-01-11 23:22:00,55.0,55.0,30.48,NNE,29,1.0,8.0,99,0.00,,,0.12,0.000000,,2013-01-12 04:22:00,
2013-01-11 23:32:00,55.0,55.0,30.48,NNE,29,1.0,8.0,99,0.00,,,0.12,0.000000,,2013-01-12 04:32:00,
2013-01-11 23:42:00,55.0,55.0,30.48,NNE,29,1.0,8.0,99,0.00,,,0.12,0.000000,,2013-01-12 04:42:00,